TimeCDT,TemperatureF,Dew PointF,Humidity,Sea Level PressureIn,VisibilityMPH,Wind Direction,Wind SpeedMPH,Gust SpeedMPH,PrecipitationIn,Events,Conditions,WindDirDegrees,DateUTC
12:15 AM,60.8,55.4,82,30.11,10.0,South,3.5,-,N/A,,Clear,190,2012-10-04 05:15:00
12:35 AM,60.8,55.4,82,30.12,10.0,SSW,4.6,-,N/A,,Clear,200,2012-10-04 05:35:00
12:55 AM,60.8,55.4,82,30.12,10.0,SSW,3.5,-,N/A,,Clear,200,2012-10-04 05:55:00
1:15 AM,59.0,55.4,88,30.12,10.0,Calm,Calm,-,N/A,,Clear,0,2012-10-04 06:15:00
1:35 AM,57.2,53.6,88,30.12,10.0,SSE,5.8,-,N/A,,Clear,160,2012-10-04 06:35:00
1:55 AM,57.2,53.6,88,30.12,10.0,SSE,6.9,-,N/A,,Clear,150,2012-10-04 06:55:00
2:15 AM,57.2,53.6,88,30.12,10.0,South,5.8,-,N/A,,Clear,170,2012-10-04 07:15:00
2:35 AM,55.4,53.6,94,30.12,10.0,South,5.8,-,N/A,,Clear,170,2012-10-04 07:35:00
2:55 AM,55.4,53.6,94,30.12,10.0,South,4.6,-,N/A,,Clear,180,2012-10-04 07:55:00
3:15 AM,55.4,53.6,94,30.12,10.0,SSW,4.6,-,N/A,,Clear,210,2012-10-04 08:15:00
3:35 AM,55.4,53.6,94,30.13,10.0,SSW,4.6,-,N/A,,Clear,210,2012-10-04 08:35:00
3:55 AM,57.2,53.6,88,30.13,10.0,SSW,3.5,-,N/A,,Clear,210,2012-10-04 08:55:00
4:16 AM,55.4,51.8,88,30.14,10.0,Calm,Calm,-,N/A,,Clear,0,2012-10-04 09:16:00
4:35 AM,55.4,53.6,94,30.15,10.0,Calm,Calm,-,N/A,,Clear,0,2012-10-04 09:35:00
4:55 AM,53.6,51.8,94,30.16,10.0,Calm,Calm,-,N/A,,Clear,0,2012-10-04 09:55:00
5:15 AM,53.6,51.8,94,30.17,10.0,SE,3.5,-,N/A,,Clear,140,2012-10-04 10:15:00
5:35 AM,53.6,51.8,94,30.17,10.0,SSE,3.5,-,N/A,,Clear,160,2012-10-04 10:35:00
5:55 AM,53.6,51.8,94,30.18,10.0,SSE,3.5,-,N/A,,Clear,150,2012-10-04 10:55:00
6:15 AM,53.6,51.8,94,30.18,10.0,South,3.5,-,N/A,,Clear,170,2012-10-04 11:15:00
6:36 AM,53.6,51.8,94,30.18,10.0,South,4.6,-,N/A,,Clear,170,2012-10-04 11:36:00
6:55 AM,53.6,51.8,94,30.19,10.0,Calm,Calm,-,N/A,,Clear,0,2012-10-04 11:55:00
7:15 AM,55.4,53.6,94,30.19,10.0,Calm,Calm,-,N/A,,Clear,0,2012-10-04 12:15:00
7:35 AM,55.4,53.6,94,30.20,10.0,Calm,Calm,-,N/A,,Clear,0,2012-10-04 12:35:00
7:55 AM,57.2,53.6,88,30.20,10.0,Calm,Calm,-,N/A,,Clear,0,2012-10-04 12:55:00
8:15 AM,59.0,55.4,88,30.21,10.0,Calm,Calm,-,N/A,,Clear,0,2012-10-04 13:15:00
8:35 AM,60.8,55.4,82,30.22,10.0,SW,3.5,-,N/A,,Clear,220,2012-10-04 13:35:00
8:55 AM,60.8,57.2,88,30.23,10.0,Calm,Calm,-,N/A,,Clear,0,2012-10-04 13:55:00
9:15 AM,62.6,57.2,82,30.23,10.0,SSW,4.6,-,N/A,,Clear,200,2012-10-04 14:15:00
9:35 AM,64.4,59.0,83,30.24,10.0,SSW,4.6,-,N/A,,Clear,200,2012-10-04 14:35:00
9:55 AM,66.2,59.0,78,30.23,10.0,South,4.6,-,N/A,,Clear,180,2012-10-04 14:55:00
10:16 AM,69.8,60.8,73,30.23,10.0,SSW,6.9,-,N/A,,Clear,200,2012-10-04 15:16:00
10:35 AM,71.6,60.8,69,30.23,10.0,South,6.9,-,N/A,,Clear,190,2012-10-04 15:35:00
10:55 AM,71.6,60.8,69,30.23,10.0,South,8.1,-,N/A,,Clear,190,2012-10-04 15:55:00
11:15 AM,73.4,60.8,65,30.22,10.0,SSW,8.1,-,N/A,,Clear,200,2012-10-04 16:15:00
11:35 AM,75.2,60.8,61,30.22,2.5,SSW,10.4,-,N/A,,Clear,200,2012-10-04 16:35:00
11:55 AM,75.2,59.0,57,30.22,0.2,South,10.4,-,N/A,,Unknown,190,2012-10-04 16:55:00
12:15 PM,77.0,59.0,54,30.22,10.0,South,11.5,-,N/A,,Clear,190,2012-10-04 17:15:00
12:36 PM,78.8,57.2,47,30.21,10.0,SSW,10.4,-,N/A,,Clear,210,2012-10-04 17:36:00
12:55 PM,78.8,57.2,47,30.20,10.0,SSW,9.2,-,N/A,,Clear,200,2012-10-04 17:55:00
1:35 PM,80.6,57.2,45,30.18,10.0,South,12.7,16.1,N/A,,Clear,190,2012-10-04 18:35:00
1:55 PM,80.6,55.4,42,30.17,10.0,South,9.2,-,N/A,,Clear,180,2012-10-04 18:55:00
2:35 PM,82.4,55.4,39,30.16,10.0,SSW,6.9,16.1,N/A,,Clear,210,2012-10-04 19:35:00
2:55 PM,82.4,53.6,37,30.15,10.0,South,11.5,17.3,N/A,,Clear,180,2012-10-04 19:55:00
3:15 PM,82.4,53.6,37,30.14,10.0,South,12.7,-,N/A,,Clear,180,2012-10-04 20:15:00
3:35 PM,82.4,53.6,37,30.14,10.0,SSW,11.5,-,N/A,,Clear,210,2012-10-04 20:35:00
3:56 PM,82.4,53.6,37,30.14,10.0,SSW,10.4,17.3,N/A,,Clear,200,2012-10-04 20:56:00
4:15 PM,82.4,53.6,37,30.13,10.0,SSW,9.2,19.6,N/A,,Clear,200,2012-10-04 21:15:00
4:35 PM,82.4,53.6,37,30.13,10.0,South,11.5,-,N/A,,Clear,190,2012-10-04 21:35:00
4:55 PM,80.6,51.8,37,30.13,10.0,SSW,12.7,-,N/A,,Clear,200,2012-10-04 21:55:00
5:15 PM,80.6,51.8,37,30.13,10.0,SSW,12.7,-,N/A,,Clear,210,2012-10-04 22:15:00
5:35 PM,80.6,53.6,39,30.13,10.0,SSW,10.4,-,N/A,,Clear,210,2012-10-04 22:35:00
5:55 PM,78.8,53.6,42,30.13,10.0,SW,9.2,-,N/A,,Clear,220,2012-10-04 22:55:00
6:15 PM,75.2,55.4,50,30.13,7.0,SW,8.1,-,N/A,,Clear,220,2012-10-04 23:15:00
7:15 PM,69.8,57.2,64,30.13,10.0,South,6.9,-,N/A,,Clear,180,2012-10-05 00:15:00
7:35 PM,69.8,57.2,64,30.13,10.0,South,5.8,-,N/A,,Clear,180,2012-10-05 00:35:00
7:55 PM,69.8,57.2,64,30.13,10.0,South,4.6,-,N/A,,Clear,180,2012-10-05 00:55:00
8:15 PM,68.0,57.2,68,30.14,10.0,South,4.6,-,N/A,,Clear,170,2012-10-05 01:15:00
8:35 PM,66.2,57.2,73,30.14,10.0,South,3.5,-,N/A,,Clear,190,2012-10-05 01:35:00
8:55 PM,68.0,57.2,68,30.14,10.0,SSW,4.6,-,N/A,,Clear,210,2012-10-05 01:55:00
9:16 PM,68.0,57.2,68,30.15,10.0,SSW,3.5,-,N/A,,Clear,210,2012-10-05 02:16:00
9:35 PM,64.4,57.2,77,30.15,10.0,Calm,Calm,-,N/A,,Clear,0,2012-10-05 02:35:00
9:55 PM,62.6,57.2,82,30.16,10.0,SE,6.9,-,N/A,,Clear,140,2012-10-05 02:55:00
10:15 PM,64.4,57.2,77,30.16,10.0,SSE,4.6,-,N/A,,Clear,160,2012-10-05 03:15:00
10:35 PM,62.6,57.2,82,30.16,10.0,South,8.1,-,N/A,,Clear,180,2012-10-05 03:35:00
10:55 PM,62.6,57.2,82,30.16,10.0,South,8.1,-,N/A,,Clear,180,2012-10-05 03:55:00
11:15 PM,62.6,57.2,82,30.15,10.0,South,8.1,-,N/A,,Clear,180,2012-10-05 04:15:00
11:35 PM,62.6,57.2,82,30.15,10.0,South,4.6,-,N/A,,Clear,180,2012-10-05 04:35:00